Location: Be Suawo
(6.6333°N, 10.7000°W)
Time: 03:28:20
(UTC+00:00)

Daily predictions for brighter satellites

Satellite Brightness Start Highest point End
(mag) Time Altitude Azimuth Time Altitude Azimuth Time Altitude Azimuth
CZ-3B R/B 3.4 03:57:14 79° WSW 03:57:51 81° SSW 04:08:36 10° ESE
BLOCK DM-SL R/B 4.3 04:09:50 28° SE 04:09:50 28° SE 04:17:09 10° E
Ariane H10-3 4.5 04:12:33 21° SE 04:12:33 21° SE 04:15:28 10° ESE
Cosmos 2333 Rocket 4.2 04:26:39 17° SSW 04:26:39 17° SSW 04:28:03 10° S
Cosmos 2237 Rocket 2.9 04:23:34 48° E 04:23:34 48° E 04:28:40 10° SSE
ARIANE 5 DEB (SYLDA) 4.4 04:32:16 41° SSE 04:32:16 41° SSE 04:38:52 10° E
Cosmos 2263 Rocket 2.4 04:29:10 10° S 04:34:44 68° ESE 04:40:16 10° NNE
Cosmos 2219 Rocket 4.2 04:38:47 16° SSW 04:38:47 16° SSW 04:40:08 10° SSW
Spelda 4.1 04:41:17 28° S 04:41:40 29° SSE 04:48:05 10° E
ARIANE 44L R/B 4.3 04:39:56 29° WSW 04:44:23 47° S 04:47:59 10° ESE
Orbus 7S? 4.4 04:42:46 10° SW 04:52:25 63° W 04:52:25 63° W
Meteor 2-7 Rocket 4.5 04:53:11 72° NNW 04:53:44 83° W 04:59:17 10° S
Cosmos 1980 3.6 04:54:23 69° W 04:54:27 69° WSW 05:00:05 10° S
STARLINK-48 3.7 05:02:33 64° E 05:02:33 64° E 05:06:06 10° SE
Cosmos 1707 Rocket 3.5 05:02:59 71° SSW 05:02:59 71° SSW 05:06:56 10° S
CZ-4B R/B 3.2 05:00:34 30° NNE 05:02:41 76° ESE 05:07:09 10° S
BLOCK DM-SL R/B 4.0 05:03:02 35° SSW 05:03:51 41° S 05:08:16 10° ESE
Cosmos 44 3.3 05:00:07 10° SSW 05:05:15 80° ESE 05:10:06 10° NNE
Cosmos 2034 Rocket 3.9 05:00:41 10° SSW 05:06:51 65° W 05:13:05 10° N
Meteosat 1 Rocket2 4.2 05:07:50 34° N 05:08:59 39° NNE 05:14:50 10° E
ARIANE 5 DEB (SYLDA) 3.4 05:08:39 31° WSW 05:10:38 53° S 05:18:26 10° E
Delta 202 3.9 05:11:36 42° NNW 05:12:07 44° NNW 05:17:13 10° ENE
Cosmos 1484 Rocket 3.6 05:09:44 10° NNE 05:13:26 48° E 05:17:04 10° S
Meteor 1-31 Rocket 3.3 05:16:57 42° SW 05:16:57 42° SW 05:19:48 10° SSW
Cosmos 1420 Rocket 4.2 05:12:26 10° SSW 05:17:25 45° WNW 05:19:05 34° NNW
Cosmos 1812 3.2 05:15:50 21° NNE 05:18:14 59° E 05:22:00 10° SSE
Meteor PRIRODA 3.5 05:17:59 17° NNE 05:20:42 87° E 05:24:22 10° S
PSLV R/B 4.0 05:21:32 10° NNE 05:25:37 78° E 05:29:40 10° S
CZ-2C R/B 3.8 05:28:54 19° WSW 05:28:54 19° WSW 05:30:37 10° SW
Cosmos 1933 Rocket 4.2 05:24:26 10° SSW 05:27:52 33° W 05:27:52 33° W
Meteor 1-25 Rocket 4.1 05:23:48 10° S 05:29:20 82° W 05:34:55 10° N
Cosmos 1346 Rocket 4.4 05:27:37 10° SSE 05:31:10 35° E 05:34:41 10° NNE
CZ-3 R/B 4.2 05:09:17 10° SW 05:32:06 37° SSE 05:39:00 10° E
Chandra Rocket (1) 4.2 05:19:29 22° NW 05:32:22 64° NNE 05:38:00 10° ESE
ALOS 3.1 05:28:50 10° NNE 05:33:22 54° E 05:37:55 10° S
STARLINK-26 4.4 05:36:19 17° N 05:38:40 39° NE 05:42:00 10° SE
Centaur D AC-29 3.0 05:39:30 12° WSW 05:40:54 14° SW 05:42:46 10° S
PSLV R/B 4.3 05:37:12 10° S 05:41:13 46° WSW 05:43:57 19° NW
Hubble Space Telescope 1.2 05:41:03 27° WNW 05:42:40 40° NNW 05:46:34 10° NE
GPS 2-17 Rocket1 3.6 05:43:23 22° NW 05:46:06 47° NNE 05:50:40 10° E
Cosmos 1452 Rocket 4.3 05:41:43 10° SW 05:46:13 29° WNW 05:50:44 10° NNW
Cosmos 614 Rocket 4.2 05:41:28 10° N 05:46:33 72° ENE 05:51:41 10° SSE
Delta 2 Rocket 4.1 05:42:20 21° WNW 05:46:49 80° NNE 05:54:09 10° ESE
PAYLOAD B 4.2 05:47:26 10° NNE 05:52:59 85° W 05:58:34 10° SSW
Cosmos 1340 2.5 05:49:26 10° S 05:53:11 83° W 05:56:55 10° N
Ariane H10 2.6 05:49:13 14° W 05:53:33 89° S 05:56:05 10° E
Lacrosse 5 1.8 05:49:57 12° NNW 05:54:41 90° SSW 05:59:44 10° SSE
CZ-3B R/B 4.2 05:45:40 13° W 05:54:56 32° SW 06:02:34 10° SSE
Gbstr 26 Del rocket 3.2 05:53:21 19° WNW 05:55:39 42° SW 05:59:34 10° SSE
COSMO-SKYMED 1 4.3 05:52:18 10° SE 05:56:13 33° ENE 06:00:07 10° NNE
SL-16 R/B 2.3 05:51:28 10° NNW 05:57:01 58° WSW 06:02:33 10° S
STARLINK-56 4.4 05:54:25 10° NNW 05:58:17 48° NE 06:02:09 10° SE
Starlink (trailer) 4.3 05:56:03 10° NNW 05:59:56 51° NE 06:03:50 10° SE
STARLINK-38 4.2 05:57:42 10° NNW 06:01:38 54° NE 06:05:33 10° SE
STARLINK-65 4.1 05:59:19 10° NNW 06:03:16 57° NE 06:07:12 10° SE
Cosmos 1140 Rocket 3.9 05:59:51 10° N 06:05:02 69° ENE 06:10:15 10° SSE
Cosmos 2237 Rocket 4.0 06:05:43 10° W 06:06:58 11° WSW 06:08:14 10° WSW
STARLINK-69 3.8 06:04:16 10° NNW 06:08:15 70° ENE 06:12:15 10° SE
Cosmos 407 Rocket 3.6 06:04:27 10° NNW 06:09:43 63° WSW 06:14:58 10° S
SEDSat Delta rocket 4.2 06:06:19 10° W 06:09:53 26° SW 06:13:20 10° SSE
STARLINK-66 3.7 06:05:54 10° NNW 06:09:54 72° NE 06:13:53 10° SE
Cosmos 1602 4.5 06:09:36 10° SSW 06:13:01 31° W 06:16:25 10° NNW
Cosmos 1733 Rocket 4.0 06:09:36 10° S 06:13:49 52° E 06:18:01 10° NNE
STARLINK-70 3.6 06:10:46 10° NNW 06:14:46 85° NE 06:18:47 10° SE
STARLINK-68 3.5 06:12:35 10° NW 06:16:36 84° SW 06:20:37 10° SSE
STARLINK-58 3.5 06:14:06 10° NW 06:18:06 85° SW 06:22:07 10° SSE
CZ-4C R/B 3.4 06:11:00 10° NNW 06:19:17 78° ENE 06:27:40 10° SSE
STARLINK-62 3.5 06:15:53 10° NW 06:19:53 76° SW 06:23:53 10° SSE
NOAA 6 4.1 06:15:09 10° N 06:20:10 58° WNW 06:25:14 10° SSW
STARLINK-63 3.5 06:17:22 10° NW 06:21:22 77° WSW 06:25:23 10° SSE
Cosmos 332 Rocket 3.9 06:16:35 10° SSW 06:21:23 59° WNW 06:26:12 10° N
STARLINK-72 3.5 06:20:36 10° NW 06:24:35 74° WSW 06:28:36 10° SSE
